This is the latest recevied weather packets stored in our database for station/object IW2LSY-11. If no packets are shown the sender has not sent any weather packets the latest 10 day(s).
| Time | Temp. | Humidity | Pressure | Rain* | Wind** | Luminosity | Snow |
|---|---|---|---|---|---|---|---|
| 1777917610 | 20.56° C | 42% | 1015.2 hPa | - | - | 430 W/m² | - |
| 1777917010 | 21.11° C | 40% | 1015.2 hPa | - | - | 430 W/m² | - |
| 1777916411 | 21.11° C | 39% | 1015.1 hPa | - | - | 431 W/m² | - |
| 1777915811 | 21.67° C | 39% | 1015 hPa | - | - | 431 W/m² | - |
| 1777915212 | 21.11° C | 39% | 1014.9 hPa | - | - | 432 W/m² | - |
| 1777914613 | 21.11° C | 33% | 1014.8 hPa | - | - | 433 W/m² | - |
| 1777914013 | 21.67° C | 33% | 1014.8 hPa | - | - | 434 W/m² | - |
| 1777913413 | 21.67° C | 35% | 1014.8 hPa | - | - | 435 W/m² | - |
| 1777912813 | 21.67° C | 38% | 1014.8 hPa | - | - | 436 W/m² | - |
| 1777912213 | 21.67° C | 35% | 1015 hPa | - | - | 437 W/m² | - |
| 1777911613 | 22.22° C | 39% | 1015 hPa | - | - | 438 W/m² | - |
| 1777911013 | 22.78° C | 37% | 1015 hPa | - | - | 438 W/m² | - |
| 1777910414 | 22.78° C | 36% | 1015.1 hPa | - | - | 438 W/m² | - |
| 1777909814 | 22.78° C | 36% | 1015.1 hPa | - | - | 439 W/m² | - |
| 1777909214 | 22.78° C | 36% | 1015.3 hPa | - | - | 440 W/m² | - |
| 1777908614 | 23.33° C | 37% | 1015.3 hPa | - | - | 441 W/m² | - |
| 1777908015 | 22.22° C | 37% | 1015.3 hPa | - | - | 442 W/m² | - |
| 1777907415 | 23.33° C | 35% | 1015.4 hPa | - | - | 446 W/m² | - |
| 1777906815 | 22.78° C | 31% | 1015.5 hPa | - | - | 446 W/m² | - |
| 1777906215 | 22.78° C | 31% | 1015.8 hPa | - | - | 447 W/m² | - |
| 1777905604 | 22.22° C | 33% | 1016.2 hPa | - | - | 448 W/m² | - |
| 1777905004 | 22.22° C | 31% | 1016.4 hPa | - | - | 448 W/m² | - |
| 1777904404 | 21.67° C | 30% | 1016.4 hPa | - | - | 448 W/m² | - |
| 1777903805 | 22.78° C | 31% | 1016.4 hPa | - | - | 449 W/m² | - |
| 1777903205 | 23.33° C | 31% | 1016.4 hPa | - | - | 450 W/m² | - |
* Rain since midnight (hover to see other rain measurements)
** Current wind speed in m/s (hover to see current wind gust speed)